[[{"header":{"parameterUnit":"m.s-1","parameterCategory":1,"la1":30.2991,"la2":30.254,"lo1":-89.0895,"lo2":-89.0444,"dy":0.0017,"dx":0.0017,"nx":28,"ny":28,"refTime":"2024-07-14T03:00:00:Z","depth":0,"parameterNumber":2,"parameterNumberName":"U-component_of_WINDS"},"data":[0,0,0,0,0,0,0,0,0,0,0,0,0,0,0,0,0,0,0,0,0,0,0,0,0,0,0,0,0,0,0,0,0,0,0,0,0,0,0,0,0,0,0,0,0,0,0,0,0,0,0,0,0,0,0,0,0,0,0.3116,0.3116,0,0.3134,0.3134,0.3134,0.3128,0.3128,0.3127,0.3127,0.3147,0.3148,0.3149,0,0,0,0,0,0,0,0,0,0,0,0,0,0.3076,0.3077,0.3116,0.3116,0.3116,0.3134,0.3134,0.3135,0.3128,0.3128,0.3127,0.3127,0.3147,0.3148,0.3149,0,0,0,0,0,0,0,0,0,0,0,0,0,0.3094,0.3077,0.3115,0.3115,0.3115,0.3134,0.3134,0.3135,0.3128,0.3128,0.3127,0.3126,0.3147,0.3148,0.315,0.3171,0,0,0.3154,0.3154,0,0,0,0,0,0,0,0,0.3093,0.3095,0.3115,0.3115,0.3115,0.3128,0.3128,0.3147,0.3128,0.3123,0.3127,0.3126,0.3142,0.3143,0.3148,0.3172,0.3173,0.3154,0.3155,0.3155,0.3156,0,0,0,0,0,0,0,0.3092,0.3095,0.3123,0.3115,0.3115,0.3114,0.3116,0.3132,0.3136,0.3124,0.3123,0.3125,0.3142,0.3147,0.3149,0.3173,0.3154,0.3155,0.3156,0.3157,0.3215,0.3216,0,0,0,0,0,0,0.309,0.3094,0.3122,0.3123,0.3102,0.3115,0.3118,0.3125,0.3136,0.3137,0.3126,0.3125,0.3145,0.3147,0.3149,0.3176,0.3155,0.3157,0.3157,0.3215,0.3216,0.3216,0,0,0,0,0,0,0.3089,0.3093,0.3122,0.3108,0.3112,0.3117,0.3125,0.3125,0.3131,0.3137,0.3138,0.313,0.3144,0.3147,0.3166,0.3176,0.3157,0.3159,0.3214,0.3215,0.3216,0.3228,0,0,0,0,0,0,0.3088,0.3093,0.31,0.3109,0.3113,0.3137,0.3125,0.3126,0.3133,0.3132,0.3142,0.3143,0.3144,0.3163,0.3167,0.3178,0.316,0.3213,0.3214,0.3216,0.3226,0.3229,0.3231,0,0,0,0,0,0.3087,0.3103,0.3101,0.3104,0.3122,0.3137,0.314,0.3141,0.3134,0.3142,0.3146,0.3143,0.3174,0.3165,0.3169,0.3181,0.3212,0.3214,0.3215,0.3225,0.3228,0.3231,0,0,0,0,0,0,0.3096,0.3104,0.3102,0.3121,0.3128,0.3136,0.3146,0.3144,0.3154,0.3153,0.3154,0.3156,0.3175,0.3179,0.3169,0.3202,0.3192,0.3195,0.3198,0.3202,0.3204,0.3203,0.3161,0,0,0,0,0,0.31,0.3111,0.3118,0.3134,0.3138,0.3142,0.3148,0.3148,0.3156,0.316,0.3165,0.3174,0.3186,0.3194,0.3205,0.3227,0.3229,0.3237,0.3239,0.3241,0.3243,0.3256,0.3259,0.3222,0.3222,0.3222,0,0,0.3109,0.3115,0.3122,0.3136,0.3142,0.3154,0.3144,0.3158,0.3167,0.3162,0.3179,0.3184,0.3194,0.3214,0.3223,0.3218,0.3254,0.3243,0.3245,0.3246,0.3258,0.3262,0.3265,0.3223,0.3223,0.3222,0,0,0.3132,0.3137,0.3151,0.3158,0.3166,0.3169,0.3172,0.3181,0.3183,0.3201,0.3197,0.3209,0.3229,0.3236,0.3243,0.3268,0.3266,0.3272,0.3285,0.3297,0.33,0.3303,0.3313,0.3316,0.3274,0.3274,0.3274,0,0.3142,0.316,0.3159,0.3173,0.318,0.3175,0.319,0.3196,0.3209,0.3214,0.3208,0.3234,0.324,0.3262,0.3269,0.3274,0.3278,0.3271,0.33,0.3303,0.3305,0.3315,0.3318,0.3275,0.3275,0.3275,0.3275,0,0.3172,0.3184,0.3195,0.3207,0.3215,0.3229,0.3231,0.3239,0.3239,0.3242,0.326,0.3267,0.328,0.3285,0.3285,0.3308,0.3305,0.3299,0.329,0.3309,0.3318,0.3322,0.3276,0.3276,0.3276,0.3275,0,0,0.3202,0.3213,0.3217,0.3222,0.3232,0.3242,0.3256,0.3268,0.3276,0.3284,0.3297,0.3314,0.331,0.3317,0.3317,0.3328,0.3349,0.3322,0.3322,0.3327,0.3375,0.338,0.3384,0.3347,0.3348,0.3348,0.3375,0,0.3226,0.325,0.325,0.3273,0.3285,0.3281,0.3294,0.3301,0.3305,0.3316,0.3319,0.3332,0.3325,0.3329,0.3339,0.3344,0.3359,0.3342,0.336,0.336,0.3358,0.3389,0.3393,0.3418,0.3378,0.3379,0.3379,0,0.3257,0.3266,0.329,0.3299,0.3304,0.3315,0.3326,0.3337,0.3346,0.3347,0.3355,0.3354,0.337,0.3359,0.3381,0.3369,0.3377,0.338,0.3381,0.3383,0.3371,0.3392,0.3426,0.343,0.3385,0.3384,0.3384,0,0.3277,0.3296,0.3313,0.3317,0.3327,0.3335,0.334,0.3348,0.3356,0.3366,0.3371,0.3383,0.339,0.34,0.3402,0.3394,0.3424,0.3413,0.3427,0.3427,0.3434,0.3434,0.347,0.3437,0.3437,0.3437,0.3437,0,0.3304,0.3319,0.3322,0.3332,0.3349,0.335,0.3367,0.3371,0.3378,0.339,0.3387,0.3398,0.34,0.3412,0.3414,0.3433,0.3435,0.3438,0.3438,0.3439,0.3439,0.3444,0.3443,0.3438,0.3438,0.3438,0.3437,0,0.333,0.3332,0.335,0.3358,0.336,0.3373,0.338,0.339,0.3393,0.3408,0.3412,0.3416,0.343,0.3433,0.345,0.3451,0.3473,0.3472,0.347,0.347,0.3484,0.3483,0.3526,0.3532,0.3494,0.3495,0.3495,0,0.3347,0.3359,0.3368,0.3375,0.338,0.3392,0.34,0.3401,0.3409,0.342,0.3429,0.3443,0.3454,0.3476,0.3482,0.3495,0.3494,0.3508,0.3496,0.3496,0.3495,0.3495,0.3497,0.3511,0.3511,0.3511,0.3512,0,0.3379,0.3379,0.339,0.3401,0.341,0.3419,0.3428,0.3435,0.3437,0.3446,0.346,0.3468,0.3485,0.3499,0.3512,0.3518,0.3516,0.3515,0.3519,0.352,0.3519,0.3521,0.3477,0.3514,0.3514,0.3514,0.3514,0.3514,0.3402,0.3412,0.342,0.3432,0.3439,0.3447,0.3457,0.3461,0.3473,0.3486,0.3486,0.3501,0.3511,0.3528,0.3534,0.3547,0.3542,0.3548,0.355,0.3551,0.3553,0.3516,0.3549,0.3549,0.3549,0.3549,0.3549,0,0.3434,0.3439,0.345,0.3462,0.3472,0.3468,0.3477,0.3486,0.3499,0.3508,0.3518,0.3535,0.3548,0.3555,0.3568,0.3577,0.3577,0.3581,0.3581,0.3582,0.3555,0.3551,0.3581,0.3581,0.3581,0.3581,0.3581,0.3581,0.3452,0.3469,0.3471,0.3491,0.3496,0.3511,0.3517,0.3525,0.3531,0.355,0.3561,0.3564,0.3572,0.3586,0.3599,0.36,0.3606,0.3611,0.3612,0.3587,0.3584,0.3581,0.3577,0.3612,0.3612,0.3638,0.3638,0.3638]},{"header":{"parameterUnit":"m.s-1","parameterCategory":1,"la1":30.2991,"la2":30.254,"lo1":-89.0895,"lo2":-89.0444,"dy":0.0017,"dx":0.0017,"nx":28,"ny":28,"refTime":"2024-07-14T03:00:00:Z","depth":0,"parameterNumber":3,"parameterNumberName":"V-component_of_WINDS"},"data":[0,0,0,0,0,0,0,0,0,0,0,0,0,0,0,0,0,0,0,0,0,0,0,0,0,0,0,0,0,0,0,0,0,0,0,0,0,0,0,0,0,0,0,0,0,0,0,0,0,0,0,0,0,0,0,0,0,0,0.223,0.223,0,0.2242,0.2242,0.2242,0.2266,0.2266,0.2267,0.2267,0.2279,0.2279,0.2279,0,0,0,0,0,0,0,0,0,0,0,0,0,0.2228,0.2228,0.223,0.223,0.2231,0.2242,0.2242,0.2242,0.2266,0.2266,0.2267,0.2267,0.2279,0.2279,0.2279,0,0,0,0,0,0,0,0,0,0,0,0,0,0.2233,0.2228,0.223,0.2244,0.2245,0.2242,0.2242,0.2242,0.2266,0.2266,0.2267,0.2268,0.2279,0.2279,0.2279,0.2264,0,0,0.2278,0.2278,0,0,0,0,0,0,0,0,0.2233,0.2233,0.2242,0.2243,0.2244,0.2253,0.2246,0.2249,0.2265,0.2258,0.2267,0.2268,0.227,0.227,0.2271,0.2264,0.2265,0.2278,0.2278,0.2278,0.2278,0,0,0,0,0,0,0,0.2233,0.2233,0.2235,0.2242,0.2243,0.2249,0.225,0.2246,0.226,0.2258,0.226,0.2261,0.2271,0.2271,0.2272,0.2265,0.2278,0.2278,0.2278,0.2278,0.2245,0.2244,0,0,0,0,0,0,0.223,0.2232,0.2234,0.2235,0.224,0.2248,0.225,0.225,0.226,0.2262,0.2261,0.2262,0.2271,0.2272,0.2272,0.2254,0.2278,0.2278,0.2278,0.2246,0.2245,0.2244,0,0,0,0,0,0,0.223,0.223,0.2234,0.2234,0.2235,0.2248,0.2247,0.2249,0.225,0.2261,0.2264,0.2259,0.2272,0.2272,0.2265,0.2255,0.2278,0.2278,0.2247,0.2245,0.2244,0.2219,0,0,0,0,0,0,0.223,0.223,0.2224,0.2234,0.2235,0.2227,0.2246,0.2249,0.225,0.2252,0.226,0.2262,0.2272,0.2265,0.2265,0.2255,0.2277,0.2248,0.2246,0.2245,0.222,0.2217,0.2214,0,0,0,0,0,0.223,0.2217,0.2224,0.2224,0.2228,0.2226,0.2227,0.2239,0.2249,0.2243,0.225,0.2262,0.2256,0.2264,0.2264,0.2254,0.2248,0.2247,0.2245,0.2222,0.2217,0.2214,0,0,0,0,0,0,0.2206,0.2218,0.2226,0.2216,0.222,0.223,0.2224,0.2234,0.2235,0.2237,0.2252,0.2253,0.2244,0.2249,0.2258,0.224,0.2254,0.2252,0.2237,0.2233,0.2229,0.2228,0.2277,0,0,0,0,0,0.2199,0.2197,0.2208,0.2198,0.2199,0.2211,0.2211,0.2219,0.2224,0.2226,0.2233,0.2236,0.2235,0.2234,0.2234,0.2221,0.2223,0.2214,0.2211,0.2208,0.2206,0.2199,0.2195,0.2238,0.2238,0.2238,0,0,0.2186,0.2192,0.219,0.2193,0.2197,0.2194,0.2212,0.2208,0.2206,0.2225,0.2218,0.2224,0.2229,0.2219,0.2215,0.2222,0.2194,0.2206,0.2203,0.2203,0.2197,0.2192,0.2189,0.2237,0.2237,0.2238,0,0,0.216,0.2165,0.2156,0.216,0.2166,0.2173,0.2171,0.218,0.2184,0.2178,0.2192,0.219,0.2188,0.2191,0.2192,0.2166,0.2177,0.2166,0.2148,0.214,0.2137,0.2134,0.2124,0.212,0.2164,0.2164,0.2164,0,0.2142,0.2138,0.2151,0.2146,0.2146,0.2164,0.2155,0.2158,0.2163,0.2163,0.2172,0.2169,0.2174,0.2164,0.2158,0.2159,0.2157,0.2165,0.2136,0.2133,0.2131,0.2121,0.2118,0.2162,0.2163,0.2163,0.2163,0,0.2116,0.2112,0.2105,0.2109,0.2109,0.2103,0.2114,0.2113,0.2121,0.2128,0.2121,0.2128,0.2129,0.2127,0.2136,0.2119,0.2123,0.2134,0.2149,0.2125,0.2116,0.2113,0.216,0.2161,0.2161,0.2162,0,0,0.2074,0.2086,0.2083,0.2085,0.2092,0.209,0.2083,0.2084,0.2082,0.2085,0.208,0.2078,0.2088,0.2089,0.2098,0.2092,0.207,0.2104,0.2104,0.2096,0.2051,0.2042,0.2037,0.2078,0.2077,0.2077,0.205,0,0.2049,0.2039,0.205,0.2038,0.2034,0.2051,0.2045,0.2049,0.2055,0.2053,0.206,0.2058,0.2072,0.2072,0.2067,0.2074,0.2061,0.2076,0.2072,0.2072,0.2069,0.2033,0.2024,0.1998,0.2047,0.2046,0.2046,0,0.2018,0.2019,0.2006,0.2014,0.2013,0.2008,0.2009,0.2007,0.2012,0.2017,0.2018,0.2029,0.2023,0.2038,0.2029,0.2039,0.2039,0.2042,0.2041,0.204,0.2057,0.2031,0.1991,0.1986,0.2041,0.2041,0.2041,0,0.1988,0.1986,0.1978,0.1979,0.1988,0.1984,0.1988,0.1993,0.1993,0.1994,0.1994,0.1994,0.1994,0.1995,0.2005,0.2015,0.1995,0.2011,0.1999,0.1998,0.1993,0.1993,0.1951,0.1994,0.1994,0.1994,0.1994,0,0.1958,0.1949,0.1965,0.1959,0.195,0.1963,0.1953,0.1958,0.1963,0.1959,0.1973,0.1969,0.1984,0.1981,0.1989,0.1981,0.1981,0.1984,0.1986,0.1983,0.1982,0.1982,0.1983,0.1993,0.1993,0.1993,0.1994,0,0.1922,0.1932,0.1924,0.1934,0.1936,0.1928,0.1936,0.1931,0.1938,0.1933,0.1932,0.1944,0.1941,0.1952,0.1951,0.1957,0.1944,0.1949,0.1942,0.1943,0.193,0.193,0.1886,0.188,0.1927,0.1926,0.1926,0,0.1902,0.1895,0.1904,0.1902,0.1905,0.1902,0.1901,0.1914,0.1913,0.1917,0.1912,0.1911,0.191,0.1906,0.1913,0.1913,0.1918,0.1902,0.1918,0.1914,0.1917,0.1917,0.1916,0.1899,0.1898,0.1898,0.1897,0,0.1865,0.187,0.1869,0.1869,0.1868,0.1869,0.1871,0.1869,0.1882,0.188,0.1878,0.1877,0.1877,0.1875,0.1876,0.188,0.189,0.1893,0.1889,0.1885,0.188,0.1882,0.1932,0.1893,0.1894,0.1894,0.1894,0.1894,0.1836,0.183,0.1835,0.1833,0.1836,0.1837,0.1833,0.1839,0.1838,0.1838,0.1846,0.1841,0.1846,0.1848,0.1851,0.1847,0.1855,0.185,0.1849,0.1848,0.1845,0.1882,0.1848,0.1848,0.1848,0.1848,0.1848,0,0.1798,0.1802,0.18,0.1802,0.18,0.1811,0.1813,0.1811,0.1807,0.181,0.181,0.1806,0.1805,0.1812,0.1812,0.1807,0.1812,0.1807,0.1807,0.1807,0.1839,0.1841,0.1803,0.1803,0.1803,0.1803,0.1803,0.1803,0.1778,0.177,0.1775,0.1768,0.1772,0.1768,0.1768,0.1769,0.1772,0.1767,0.1766,0.1771,0.1776,0.1775,0.1774,0.1777,0.1775,0.1768,0.1771,0.1801,0.1805,0.1809,0.1811,0.1767,0.1767,0.174,0.174,0.174]}]]